Location: Ethel Rock
(53.4667°N, 4.5667°W)
Time: 04:06:58
(UTC+00:00)

Cosmos 2195 Rocket - Pass Details

Date: 24 October 2020
Orbit: 948 x 994 km, 82.9° (Epoch: 25 November)

Event Time Altitude Azimuth Distance (km) Brightness Sun altitude
Rises 05:54:53 0° 191° (SSW) 3,665 7.5 -10.7°
Reaches altitude 10° 05:57:24 10° 193° (SSW) 2,715 6.8 -10.3°
Maximum altitude 06:03:38 81° 281° (W) 983 4.5 -9.4°
Drops below altitude 10° 06:09:50 10° 9° (N) 2,703 6.9 -8.5°
Sets 06:12:20 0° 11° (N) 3,648 7.5 -8.1°
